DW5963 Weather Reports


time (UTC)temp
F
wind
direction
speed
knots
gust
knots
rain 1hr
in
rain 24hr
in
rain mn
in
humidity
%
barometer
mb
20260906123058 64 360 2.6 0.0 0.00 0.00 0.00 95 1010.4
20260906122557 64 360 1.7 0.0 0.00 0.00 0.00 95 1010.8
20260906122101 64 360 0.9 0.0 0.00 0.00 0.00 95 1010.8
20260906121606 63 360 1.7 0.0 0.00 0.00 0.00 95 1010.8
20260906121056 63 360 1.7 0.0 0.00 0.00 0.00 95 1010.9
20260906120556 62 360 1.7 0.0 0.00 0.00 0.00 95 1010.7
20260906120057 62 360 0.9 0.0 0.00 0.00 0.00 94 1011.0
20260906115557 62 360 0.0 0.0 0.00 0.00 0.00 94 1011.0
20260906115056 62 360 0.0 0.0 0.00 0.00 0.00 94 1011.0
20260906114054 62 360 0.0 0.0 0.00 0.00 0.00 94 1010.7
20260906113554 63 360 0.0 0.0 0.00 0.00 0.00 94 1010.8
20260906113057 63 360 0.0 0.0 0.00 0.00 0.00 94 1010.6
20260906112553 63 360 0.9 0.0 0.00 0.00 0.00 94 1010.7
20260906112053 62 360 0.9 0.0 0.00 0.00 0.00 94 1010.4
20260906111553 62 360 0.9 0.0 0.00 0.00 0.00 93 1010.2
20260906111051 63 360 0.9 0.0 0.00 0.00 0.00 93 1010.3
20260906110553 63 360 0.9 0.0 0.00 0.00 0.00 94 1010.4
20260906110049 63 360 0.9 0.0 0.00 0.00 0.00 94 1010.4
20260906105550 63 360 0.9 0.0 0.00 0.00 0.00 94 1010.2
20260906105049 63 360 0.9 0.0 0.00 0.00 0.00 93 1010.3
20260906104049 64 360 0.0 0.0 0.00 0.00 0.00 93 1010.2
20260906103553 64 360 0.0 0.0 0.00 0.00 0.00 93 1010.3
20260906103049 64 360 0.9 0.0 0.00 0.00 0.00 93 1010.2
20260906102548 64 360 1.7 0.0 0.00 0.00 0.00 94 1010.1
20260906102049 64 360 2.6 0.0 0.00 0.00 0.00 93 1010.0
20260906101548 64 360 2.6 0.0 0.00 0.00 0.00 93 1009.8
20260906101048 64 360 2.6 0.0 0.00 0.00 0.00 93 1009.8
20260906100547 64 360 1.7 0.0 0.00 0.00 0.00 93 1009.8
20260906100045 64 360 1.7 0.0 0.00 0.00 0.00 93 1010.0
20260906095544 65 360 2.6 0.0 0.00 0.00 0.00 93 1009.9
20260906095048 65 360 2.6 0.0 0.00 0.00 0.00 93 1009.9
20260906094043 65 360 2.6 0.0 0.00 0.00 0.00 93 1010.1
20260906093543 65 360 1.7 0.0 0.00 0.00 0.00 92 1010.1
20260906093042 66 360 1.7 0.0 0.00 0.00 0.00 93 1010.0
20260906092543 66 360 1.7 0.0 0.00 0.00 0.00 93 1009.9
20260906092041 66 360 2.6 0.0 0.00 0.00 0.00 93 1009.8
20260906091541 66 360 2.6 0.0 0.00 0.00 0.00 92 1009.7
20260906091040 66 360 1.7 0.0 0.00 0.00 0.00 92 1009.8
20260906090540 66 360 2.6 0.0 0.00 0.00 0.00 93 1009.7
20260906090042 66 360 2.6 0.0 0.00 0.00 0.00 93 1009.7
20260906085540 66 360 2.6 0.0 0.00 0.00 0.00 92 1009.8
20260906085039 66 360 2.6 0.0 0.00 0.00 0.00 92 1009.8
20260906084039 66 360 1.7 0.0 0.00 0.00 0.00 92 1009.9
20260906083538 66 360 1.7 0.0 0.00 0.00 0.00 92 1010.0
20260906083038 66 360 1.7 0.0 0.00 0.00 0.00 92 1010.1
20260906082537 66 360 2.6 0.0 0.00 0.00 0.00 91 1010.1
20260906082039 67 360 2.6 0.0 0.00 0.00 0.00 92 1010.0
20260906081543 67 360 2.6 0.0 0.00 0.00 0.00 91 1010.1
20260906081036 67 360 2.6 0.0 0.00 0.00 0.00 91 1010.0
20260906080536 67 360 3.5 0.0 0.00 0.00 0.00 91 1010.2
20260906080035 67 360 2.6 0.0 0.00 0.00 0.00 91 1010.3
20260906075533 67 360 2.6 0.0 0.00 0.00 0.00 91 1010.1
20260906075035 67 360 2.6 0.0 0.00 0.00 0.00 91 1010.3
20260906074032 67 360 1.7 0.0 0.00 0.00 0.00 90 1010.3
20260906073532 68 360 2.6 0.0 0.00 0.00 0.00 90 1010.3
20260906073032 68 360 2.6 0.0 0.00 0.00 0.00 90 1010.3
20260906072531 68 360 2.6 0.0 0.00 0.00 0.00 90 1010.4
20260906072033 68 360 2.6 0.0 0.00 0.00 0.00 90 1010.4
20260906071530 68 360 2.6 0.0 0.00 0.00 0.00 90 1010.5
20260906071033 68 360 2.6 0.0 0.00 0.00 0.00 89 1010.6
20260906070533 69 360 2.6 0.0 0.00 0.00 0.00 89 1010.7
20260906070031 69 360 1.7 0.0 0.00 0.00 0.00 90 1010.7
20260906065530 69 360 1.7 0.0 0.00 0.00 0.00 89 1010.6
20260906065033 69 360 2.6 0.0 0.00 0.00 0.00 90 1010.7
20260906064030 68 360 1.7 0.0 0.00 0.00 0.00 90 1010.7
20260906063529 68 360 1.7 0.0 0.00 0.00 0.00 89 1010.7
20260906063030 68 360 1.7 0.0 0.00 0.00 0.00 89 1010.7
20260906062529 68 360 1.7 0.0 0.00 0.00 0.00 89 1010.7
20260906062032 68 360 1.7 0.0 0.00 0.00 0.00 89 1010.6
20260906061529 68 360 2.6 0.0 0.00 0.00 0.00 88 1010.6
20260906061029 68 360 2.6 0.0 0.00 0.00 0.00 88 1010.7
20260906060529 69 360 2.6 0.0 0.00 0.00 0.00 88 1010.7
20260906060033 69 360 2.6 0.0 0.00 0.00 0.00 88 1010.7
20260906055530 69 360 2.6 0.0 0.00 0.00 0.00 88 1010.7
20260906055030 69 360 2.6 0.0 0.00 0.00 0.00 88 1010.8
20260906054029 69 360 2.6 0.0 0.00 0.00 0.00 87 1010.8
20260906053530 69 360 2.6 0.0 0.00 0.00 0.00 87 1010.7
20260906053033 69 360 1.7 0.0 0.00 0.00 0.00 87 1010.7
20260906052528 69 360 1.7 0.0 0.00 0.00 0.00 86 1010.7
20260906052029 70 360 2.6 0.0 0.00 0.00 0.00 86 1010.7
20260906051528 70 360 1.7 0.0 0.00 0.00 0.00 86 1010.7
20260906051028 70 360 1.7 0.0 0.00 0.00 0.00 85 1010.7
20260906050527 71 360 1.7 0.0 0.00 0.00 0.00 84 1010.6
20260906050033 71 360 1.7 0.0 0.00 0.00 0.00 85 1010.6
20260906045527 71 360 1.7 0.0 0.00 0.00 0.00 84 1010.6
20260906045031 71 360 1.7 0.0 0.00 0.00 0.00 84 1010.6
20260906044028 72 360 1.7 0.0 0.00 0.00 0.00 83 1010.6
20260906043530 72 360 2.6 0.0 0.00 0.00 0.00 83 1010.6
20260906043027 72 360 2.6 0.0 0.00 0.00 0.00 83 1010.6
20260906042526 73 360 2.6 0.0 0.00 0.00 0.00 83 1010.6
20260906042027 73 360 3.5 0.0 0.00 0.00 0.00 82 1010.5
20260906041531 73 360 4.3 0.0 0.00 0.00 0.00 82 1010.5
20260906041026 73 360 4.3 0.0 0.00 0.00 0.00 82 1010.7
20260906040526 73 360 4.3 0.0 0.00 0.00 0.00 82 1010.6
20260906040029 74 360 4.3 0.0 0.00 0.00 0.00 81 1010.6
20260906035526 74 360 4.3 0.0 0.00 0.00 0.00 81 1010.5
20260906035026 74 360 4.3 0.0 0.00 0.00 0.00 80 1010.6
20260906034026 75 360 6.1 0.0 0.00 0.00 0.00 79 1010.6
20260906033525 75 360 7.0 0.0 0.00 0.00 0.00 79 1010.6
20260906033038 75 360 7.0 0.0 0.00 0.00 0.00 79 1010.6
20260906032525 76 360 7.0 0.0 0.00 0.00 0.00 79 1010.7
20260906032025 75 360 6.1 0.0 0.00 0.00 0.00 79 1010.6
20260906031528 75 360 5.2 0.0 0.00 0.00 0.00 79 1010.5
20260906031024 75 360 5.2 0.0 0.00 0.00 0.00 78 1010.5
20260906030525 75 360 5.2 0.0 0.00 0.00 0.00 77 1010.4
20260906030023 76 360 6.1 0.0 0.00 0.00 0.00 77 1010.3
20260906025522 76 360 6.1 0.0 0.00 0.00 0.00 77 1010.3
20260906025025 76 360 6.1 0.0 0.00 0.00 0.00 76 1010.2
20260906024023 76 360 7.0 0.0 0.00 0.00 0.00 75 1010.0
20260906023520 76 360 7.0 0.0 0.00 0.00 0.00 74 1009.8
20260906023024 77 360 7.0 0.0 0.00 0.00 0.00 74 1010.0
20260906022523 77 360 7.0 0.0 0.00 0.00 0.00 73 1009.9
20260906022019 77 360 7.0 0.0 0.00 0.00 0.00 72 1009.8
20260906021519 78 360 7.0 0.0 0.00 0.00 0.00 72 1009.7
20260906021019 78 360 7.0 0.0 0.00 0.00 0.00 72 1009.8
20260906020519 78 360 7.0 0.0 0.00 0.00 0.00 71 1009.7
20260906020019 78 360 6.1 0.0 0.00 0.00 0.00 71 1009.8
20260906015518 79 360 7.0 0.0 0.00 0.00 0.00 70 1009.7
20260906015018 79 38 6.1 0.0 0.00 0.00 0.00 70 1009.7
20260906014016 80 360 5.2 0.0 0.00 0.00 0.00 69 1009.5
20260906013517 80 360 4.3 0.0 0.00 0.00 0.00 69 1009.4
20260906013020 80 360 4.3 0.0 0.00 0.00 0.00 68 1009.3
20260906012519 80 360 4.3 0.0 0.00 0.00 0.00 67 1009.2
20260906012017 81 360 3.5 0.0 0.00 0.00 0.00 66 1009.2
20260906011520 81 360 3.5 0.0 0.00 0.00 0.00 66 1009.1
20260906011016 82 360 2.6 0.0 0.00 0.00 0.00 64 1008.8
20260906010519 83 360 2.6 0.0 0.00 0.00 0.00 63 1008.8
20260906010015 83 360 1.7 0.0 0.00 0.00 0.00 62 1008.7
20260906005515 83 360 1.7 0.0 0.00 0.00 0.00 62 1008.4
20260906005017 84 360 2.6 0.0 0.00 0.00 0.00 61 1008.4
20260906004015 84 360 2.6 0.0 0.00 0.00 0.00 61 1008.4
20260906003518 84 360 2.6 0.0 0.00 0.00 0.00 61 1008.3
20260906003015 84 360 2.6 0.0 0.00 0.00 0.00 60 1008.4
20260906002514 84 360 2.6 0.0 0.00 0.00 0.00 60 1008.5
20260906002015 84 360 3.5 0.0 0.00 0.00 0.00 60 1008.6
20260906001515 84 360 4.3 0.0 0.00 0.00 0.00 60 1008.5
20260906001013 84 360 3.5 0.0 0.00 0.00 0.00 59 1008.5
20260906000514 85 360 3.5 0.0 0.00 0.00 0.00 59 1008.6
20260906000014 85 360 3.5 0.0 0.00 0.00 0.00 59 1008.6
20260905235515 85 360 4.3 0.0 0.00 0.00 0.00 59 1008.5
20260905235018 85 360 5.2 0.0 0.00 0.00 0.00 59 1008.5
20260905234014 85 360 4.3 0.0 0.00 0.00 0.00 59 1008.5
20260905233515 85 360 5.2 0.0 0.00 0.00 0.00 60 1008.4
20260905233013 85 360 5.2 0.0 0.00 0.00 0.00 59 1008.4
20260905232513 85 360 4.3 0.0 0.00 0.00 0.00 60 1008.3
20260905232013 84 360 6.1 0.0 0.00 0.00 0.00 60 1008.2
20260905231512 85 360 6.1 0.0 0.00 0.00 0.00 60 1008.2
20260905231012 85 360 4.3 0.0 0.00 0.00 0.00 60 1008.2
20260905230512 84 360 4.3 0.0 0.00 0.00 0.00 60 1008.2
20260905230012 84 360 4.3 0.0 0.00 0.00 0.00 59 1008.2
20260905225512 84 360 3.5 0.0 0.00 0.00 0.00 60 1008.2
20260905225012 84 360 4.3 0.0 0.00 0.00 0.00 59 1008.2
20260905224014 85 360 3.5 0.0 0.00 0.00 0.00 59 1008.1
20260905223510 85 360 3.5 0.0 0.00 0.00 0.00 59 1008.1
20260905223010 84 360 4.3 0.0 0.00 0.00 0.00 59 1008.2
20260905222511 84 360 4.3 0.0 0.00 0.00 0.00 60 1008.2
20260905222009 84 360 4.3 0.0 0.00 0.00 0.00 60 1008.3
20260905221513 85 360 5.2 0.0 0.00 0.00 0.00 59 1008.2
20260905221010 85 360 4.3 0.0 0.00 0.00 0.00 59 1008.4
20260905220508 84 360 4.3 0.0 0.00 0.00 0.00 60 1008.5
20260905220008 84 360 5.2 0.0 0.00 0.00 0.00 60 1008.4
20260905215509 84 360 5.2 0.0 0.00 0.00 0.00 59 1008.5
20260905215007 84 360 4.3 0.0 0.00 0.00 0.00 60 1008.6
20260905214007 84 360 3.5 0.0 0.00 0.00 0.00 60 1008.6
20260905213507 84 360 3.5 0.0 0.00 0.00 0.00 60 1008.6
20260905213007 84 360 5.2 0.0 0.00 0.00 0.00 61 1008.6
20260905212506 84 360 6.1 0.0 0.00 0.00 0.00 60 1008.6
20260905212010 84 360 5.2 0.0 0.00 0.00 0.00 60 1008.7
20260905211506 84 360 4.3 0.0 0.00 0.00 0.00 61 1008.6
20260905211007 84 360 4.3 0.0 0.00 0.00 0.00 60 1008.7
20260905210509 84 360 3.5 0.0 0.00 0.00 0.00 61 1008.6
20260905210004 84 360 5.2 0.0 0.00 0.00 0.00 61 1008.6
20260905205504 84 360 5.2 0.0 0.00 0.00 0.00 61 1008.7
20260905205004 84 360 4.3 0.0 0.00 0.00 0.00 62 1008.7
20260905204003 84 360 4.3 0.0 0.00 0.00 0.00 62 1008.7
20260905203503 83 360 4.3 0.0 0.00 0.00 0.00 62 1008.7
20260905203003 84 360 4.3 0.0 0.00 0.00 0.00 62 1008.7
20260905202502 83 360 4.3 0.0 0.00 0.00 0.00 63 1008.7
20260905202002 83 360 4.3 0.0 0.00 0.00 0.00 63 1008.7
20260905201505 83 360 3.5 0.0 0.00 0.00 0.00 63 1008.7
20260905201001 83 360 2.6 0.0 0.00 0.00 0.00 63 1008.7
20260905200600 82 360 3.5 0.0 0.00 0.00 0.00 65 1008.8
20260905195557 81 360 2.6 0.0 0.00 0.00 0.00 66 1008.8
20260905195057 81 360 2.6 0.0 0.00 0.00 0.00 66 1008.8
20260905194058 81 360 2.6 0.0 0.00 0.00 0.00 67 1008.9
20260905193556 80 360 3.5 0.0 0.00 0.00 0.00 67 1008.9
20260905193057 80 360 3.5 0.0 0.00 0.00 0.00 68 1008.9
20260905192556 80 43 4.3 0.0 0.00 0.00 0.00 68 1008.9
20260905192057 80 360 3.5 0.0 0.00 0.00 0.00 68 1008.9
20260905191556 80 108 4.3 0.0 0.00 0.00 0.00 68 1008.8
20260905191056 81 360 6.1 0.0 0.00 0.00 0.00 68 1008.8
20260905190554 80 360 6.1 0.0 0.00 0.00 0.00 70 1008.8
20260905190055 80 360 6.1 0.0 0.00 0.00 0.00 70 1008.8
20260905185557 79 360 7.0 0.0 0.00 0.00 0.00 71 1008.8
20260905185053 79 360 7.0 0.0 0.00 0.00 0.00 72 1008.8
20260905184056 78 84 7.0 0.0 0.00 0.00 0.00 73 1009.0
20260905183556 78 360 7.0 0.0 0.00 0.00 0.00 73 1009.0
20260905183057 78 360 7.0 0.0 0.00 0.00 0.00 74 1009.1
20260905182553 77 65 7.0 0.0 0.00 0.00 0.00 74 1009.0
20260905182053 77 82 7.0 0.0 0.00 0.00 0.00 75 1009.0
20260905181605 77 360 7.0 0.0 0.00 0.00 0.00 74 1009.0
20260905181053 77 360 7.0 0.0 0.00 0.00 0.00 74 1009.0
20260905180553 77 360 7.0 0.0 0.00 0.00 0.00 73 1008.9
20260905180052 77 91 5.2 0.0 0.00 0.00 0.00 73 1009.0
20260905175553 77 88 4.3 0.0 0.00 0.00 0.00 74 1009.0
20260905175055 77 360 3.5 0.0 0.00 0.00 0.00 73 1009.2
20260905174052 77 92 5.2 0.0 0.00 0.00 0.00 72 1009.3
20260905173552 78 79 5.2 0.0 0.00 0.00 0.00 72 1009.2
20260905173051 78 84 4.3 0.0 0.00 0.00 0.00 71 1009.2
20260905172552 78 80 5.2 0.0 0.00 0.00 0.00 71 1009.2
20260905172052 78 114 7.0 0.0 0.00 0.00 0.00 70 1009.2
20260905171552 79 112 7.0 0.0 0.00 0.00 0.00 69 1009.2
20260905171050 79 82 7.0 0.0 0.00 0.00 0.00 70 1008.9
20260905170550 79 92 7.0 0.0 0.00 0.00 0.00 70 1008.7
20260905170053 79 83 7.8 0.0 0.00 0.00 0.00 70 1008.7
20260905165549 79 111 8.7 0.0 0.00 0.00 0.00 70 1008.6
20260905165048 79 112 7.8 0.0 0.00 0.00 0.00 71 1008.6
20260905164050 78 73 7.0 0.0 0.00 0.00 0.00 72 1008.6
20260905163546 77 107 7.8 0.0 0.00 0.00 0.00 72 1008.5
20260905163048 77 360 7.8 0.0 0.00 0.00 0.00 72 1008.7
20260905162545 77 90 7.8 0.0 0.00 0.00 0.00 73 1008.7
20260905162043 76 98 8.7 0.0 0.00 0.00 0.00 73 1008.6
20260905161543 76 86 8.7 0.0 0.00 0.00 0.00 74 1008.4
20260905161043 76 90 7.8 0.0 0.00 0.00 0.00 74 1008.5
20260905160542 76 103 7.0 0.0 0.00 0.00 0.00 74 1008.8
20260905160109 76 90 7.0 0.0 0.00 0.00 0.00 75 1008.8
20260905155540 75 360 7.8 0.0 0.00 0.00 0.00 75 1008.8
20260905155043 75 88 8.7 0.0 0.00 0.00 0.00 75 1008.7
20260905154039 75 89 8.7 0.0 0.00 0.00 0.00 76 1008.6
20260905153537 74 76 9.6 0.0 0.00 0.00 0.00 76 1008.5
20260905153036 74 98 9.6 0.0 0.00 0.00 0.00 76 1008.5
20260905152536 74 94 8.7 0.0 0.00 0.00 0.00 77 1008.3
20260905152037 74 105 8.7 0.0 0.00 0.00 0.00 77 1008.4
20260905151537 74 80 9.6 0.0 0.00 0.00 0.00 76 1008.3
20260905151034 74 98 9.6 0.0 0.00 0.00 0.00 77 1008.4
20260905150534 73 105 9.6 0.0 0.00 0.00 0.00 78 1008.4
20260905150034 73 90 9.6 0.0 0.00 0.00 0.00 79 1008.5
20260905145531 72 107 8.7 0.0 0.00 0.00 0.00 79 1008.7
20260905145031 72 107 7.0 0.0 0.00 0.00 0.00 79 1008.7
20260905144032 72 360 6.1 0.0 0.00 0.00 0.00 80 1008.7
20260905143534 71 360 6.1 0.0 0.00 0.00 0.00 80 1008.8
20260905143030 71 360 6.1 0.0 0.00 0.00 0.00 81 1008.8
20260905142530 71 360 6.1 0.0 0.00 0.00 0.00 81 1008.9
20260905142029 70 360 6.1 0.0 0.00 0.00 0.00 82 1008.9
20260905141529 70 360 6.1 0.0 0.00 0.00 0.00 82 1009.0
20260905141027 70 360 6.1 0.0 0.00 0.00 0.00 83 1009.0
20260905140530 70 360 6.1 0.0 0.00 0.00 0.00 83 1008.9
20260905140026 69 360 6.1 0.0 0.00 0.00 0.00 84 1008.7
20260905135526 69 360 7.0 0.0 0.00 0.00 0.00 84 1008.6
20260905135025 69 360 6.1 0.0 0.00 0.00 0.00 85 1008.6
20260905134026 68 360 7.0 0.0 0.00 0.00 0.00 86 1008.5
20260905133524 68 360 7.0 0.0 0.00 0.00 0.00 87 1008.3
20260905133024 67 360 6.1 0.0 0.00 0.00 0.00 87 1008.3
20260905132527 67 360 5.2 0.0 0.00 0.00 0.00 88 1008.2
20260905132025 67 360 4.3 0.0 0.00 0.00 0.00 88 1008.1
20260905131523 66 360 3.5 0.0 0.00 0.00 0.00 89 1008.2
20260905131024 66 360 3.5 0.0 0.00 0.00 0.00 89 1008.3
20260905130522 66 360 4.3 0.0 0.00 0.00 0.00 90 1008.1
20260905130022 66 360 4.3 0.0 0.00 0.00 0.00 90 1008.0
20260905125521 66 360 4.3 0.0 0.00 0.00 0.00 90 1008.1
20260905125021 65 360 4.3 0.0 0.00 0.00 0.00 90 1008.0
20260905124019 65 360 5.2 0.0 0.00 0.00 0.00 90 1008.0
20260905123518 65 360 5.2 0.0 0.00 0.00 0.00 90 1007.8